Погода в Хиросаки

Япония     40°36′14″N   140°28′28″E
темп.,
°C
ветер,
м/с
пор.,
м/с
влажн.,
%
обл.,
%
осадки,
мм/ч
давл.,
гПа
погр.,
м
20 апреля, вт
вт2000:00+8юз5118472 0.0 1009719
03:00+8ююз5108066 0.0 1010607
06:00+9ююз5108181 0.0 1010935
09:00+12ююз6117130 0.0 1010918
12:00+14зюз7126762 0.1 10101452
15:00+10сз57360 0.1 10131131
18:00+5ссз22510 0.0 101659
21:00+2ююз36660 0.0 1018112
21 апреля, ср
ср2100:00+2юз49730 0.0 1019262
03:00+3юз38750 0.0 1019204
06:00+5зюз412680 0.0 1019830
09:00+10з715390 0.0 10181996
12:00+12зсз815320 0.0 10182067
15:00+11сз614340 0.0 10181711
18:00+7сз23520 0.0 101976
21:00+4зюз11650 0.0 102011
22 апреля, чт
чт2200:00+3ююз23710 0.0 102143
03:00+2ююз2482100 0.0 102060
06:00+4юз11814 0.0 102060
09:00+11ссз510410 0.0 10191180
12:00+12с59440 0.0 10191347
15:00+12с59440 0.0 10191443
18:00+8ссв22550 0.0 102137
21:00+4ссв11630 0.0 102312
23 апреля, пт
пт2300:00+3зюз00640 0.0 102411
03:00+2ю11690 0.0 102411
06:00+4юв00640 0.0 102541
09:00+11с12400 0.0 1023585
12:00+14с33350 0.0 10221012
15:00+15с34330 0.0 1021988
18:00+9с22660 0.0 102232
21:00+6ссз01730 0.0 102311
24 апреля, сб
сб2400:00+5ююв11664 0.0 102110
03:00+5юз226410 0.0 102114
06:00+6ююз11625 0.0 102037
09:00+14ю2241100 0.0 1018574
12:00+18ю0236100 0.0 10161222
15:00+16св1140100 0.0 1015870
18:00+10ю2462100 0.0 1015103
21:00+7ююз3573100 0.0 1015119